TimeAKDT,TemperatureF,Dew PointF,Humidity,Sea Level PressureIn,VisibilityMPH,Wind Direction,Wind SpeedMPH,Gust SpeedMPH,PrecipitationIn,Events,Conditions,WindDirDegrees,DateUTC
12:56 AM,10.0,5.0,80,30.04,10.0,Calm,Calm,-,N/A,,Overcast,0,2012-10-31 08:56:00
1:56 AM,9.0,3.9,80,30.03,10.0,SE,4.6,-,N/A,,Overcast,140,2012-10-31 09:56:00
2:56 AM,17.1,6.1,62,30.01,10.0,NE,12.7,-,N/A,,Scattered Clouds,50,2012-10-31 10:56:00
3:56 AM,16.0,5.0,62,30.02,10.0,NE,6.9,-,N/A,,Clear,50,2012-10-31 11:56:00
4:56 AM,14.0,3.9,64,30.01,10.0,NE,4.6,-,N/A,,Scattered Clouds,40,2012-10-31 12:56:00
5:56 AM,17.1,6.1,62,30.01,10.0,NE,11.5,-,N/A,,Overcast,40,2012-10-31 13:56:00
6:31 AM,17.6,6.8,63,29.97,7.0,NE,8.1,-,N/A,,Mostly Cloudy,50,2012-10-31 14:31:00
6:55 AM,17.6,6.8,63,30.01,7.0,NNE,6.9,-,N/A,,Mostly Cloudy,30,2012-10-31 14:55:00
7:55 AM,15.8,5.0,62,30.00,7.0,NE,5.8,-,N/A,,Mostly Cloudy,50,2012-10-31 15:55:00
8:55 AM,15.8,5.0,62,30.00,7.0,NNE,5.8,-,N/A,,Mostly Cloudy,20,2012-10-31 16:55:00
9:55 AM,17.6,5.0,58,29.99,7.0,NE,9.2,-,N/A,,Mostly Cloudy,40,2012-10-31 17:55:00
10:55 AM,19.4,5.0,54,29.99,7.0,NE,11.5,-,N/A,,Mostly Cloudy,40,2012-10-31 18:55:00
11:55 AM,19.4,6.8,58,29.99,7.0,NE,10.4,-,N/A,,Mostly Cloudy,40,2012-10-31 19:55:00
12:55 PM,21.2,6.8,54,29.99,7.0,NE,13.8,25.3,N/A,,Mostly Cloudy,50,2012-10-31 20:55:00
2:55 PM,21.2,6.8,54,29.97,7.0,NE,13.8,23.0,N/A,,Mostly Cloudy,40,2012-10-31 22:55:00
3:55 PM,21.2,6.8,54,29.97,7.0,NE,16.1,23.0,N/A,,Mostly Cloudy,50,2012-10-31 23:55:00
4:55 PM,19.4,6.8,58,29.98,7.0,NE,16.1,24.2,N/A,,Mostly Cloudy,50,2012-11-01 00:55:00
5:55 PM,19.4,5.0,54,29.99,7.0,NE,11.5,-,N/A,,Mostly Cloudy,40,2012-11-01 01:55:00
6:55 PM,19.4,5.0,54,29.99,7.0,NE,13.8,-,N/A,,Mostly Cloudy,40,2012-11-01 02:55:00
7:55 PM,17.6,5.0,58,30.01,7.0,NE,8.1,-,N/A,,Mostly Cloudy,40,2012-11-01 03:55:00
8:55 PM,19.4,5.0,54,30.01,7.0,NE,10.4,-,N/A,,Scattered Clouds,40,2012-11-01 04:55:00
9:55 PM,19.4,5.0,54,30.01,7.0,NE,9.2,-,N/A,,Mostly Cloudy,50,2012-11-01 05:55:00
10:56 PM,19.0,6.1,57,30.02,10.0,ENE,8.1,-,N/A,,Partly Cloudy,60,2012-11-01 06:56:00
11:56 PM,18.0,6.1,60,30.03,10.0,ENE,9.2,-,N/A,,Clear,60,2012-11-01 07:56:00